Location: Bartshausen
(51.8454°N, 9.8167°E)
Time: 23:13:22
(UTC+00:00)

Cosmos 1140 Rocket - Pass Details

Date: 08 November 2025
Orbit: 740 x 761 km, 74.1° (Epoch: 04 December)

Event Time Altitude Azimuth Distance (km) Brightness Sun altitude
Exits shadow 04:15:50 37° 309° (NW) 1,154 4.0 -20.5°
Maximum altitude 04:17:35 56° 252° (WSW) 887 3.4 -20.2°
Drops below altitude 10° 04:22:33 10° 175° (S) 2,247 6.0 -19.4°
Sets 04:24:55 0° 171° (S) 3,165 6.8 -19.1°
